Погода в Тубинском

Россия / Республика Башкортостан     52°53′15″N   58°13′02″E
темп.,
°C
ветер,
м/с
пор.,
м/с
влажн.,
%
обл.,
%
осадки,
мм/ч
давл.,
гПа
погр.,
м
3 марта, ср
ср323:00−12зюз81789100 0.1 1010572
02:00−10зюз8178999 0.0 1008549
05:00−9зюз7149196 0.0 1006528
08:00−8юз51392100 0.1 1004496
11:00−4юз71291100 0.2 1004859
14:00−2юз81189100 0.3 10031008
17:00−2юз71191100 0.6 1002898
20:00−5юз499689 0.2 1002216
4 марта, чт
чт423:00−8зюз349790 0.3 100278
02:00−7зсз369580 0.2 1001123
05:00−10з599566 0.2 1003176
08:00−12з6129359 0.0 1005322
11:00−10з9148857 0.1 1006626
14:00−8з9148518 0.0 1007820
17:00−8зюз813869 0.0 1007676
20:00−11зюз7169128 0.0 1007609
5 марта, пт
пт523:00−8зюз11208859 0.1 1006803
02:00−6зюз12208964 0.1 1004782
05:00−4зюз11199161 0.4 1004949
08:00−4зюз11189171 0.4 1006894
11:00−3зюз11189075 0.8 10061035
14:00−2юз12199197 0.4 10051081
17:00−3зюз11199299 1.2 10051150
20:00−2зюз101893100 0.4 1004998
6 марта, сб
сб623:00−1зюз11189295 0.9 10041055
02:00−2з10169296 1.2 10051139
05:00−9зсз7149171 1.4 1010352
08:00−13з359355 0.0 1013112
11:00−9зсз267678 0.0 1014375
14:00−7зюз2366100 0.0 1013547
17:00−7вюв3486100 0.1 1010483
20:00−10в5996100 3.1 1007424
7 марта, вс
вс723:00−10в41096100 5.6 1005385
02:00−11св3496100 1.9 1003236
05:00−14с2396100 2.7 100627
08:00−16зсз2295100 0.1 100920
11:00−11з248899 0.1 1011458
14:00−8з5681100 0.1 10111005
17:00−9з688499 0.1 1012885
20:00−16з499571 0.0 1014165